ECMWFFLT1_con_mucape_009.txt.gz
CAPE
0 0 0 0 0 0 0 0 0 0 0 0 0 0 0 0 0 0 0 0 0 0 0 0 0 0 0 0 0 0 0 0 0 0 2 14 2 14 53 106 192 122 122 171 128 72 44 0 2 0 0 0 0 0 0 0 0 0 0 0 0 0 0
0 0 0 0 0 0 0 0 0 0 0 0 0 0 0 0 0 0 0 0 0 0 0 0 0 0 0 0 0 0 0 0 0 0 0 0 1 2 1 18 93 168 172 178 116 68 42 31 1 72 0 0 0 0 0 0 0 0 0 0 0 0 0
0 0 0 0 0 0 0 0 0 0 0 0 0 0 0 0 0 0 0 0 0 0 0 0 0 0 0 0 0 0 0 0 0 0 0 0 0 1 0 1 0 2 49 213 229 224 96 43 11 22 1 0 0 0 0 0 0 123 0 0 0 0 0
0 0 0 0 0 0 0 0 0 0 0 0 0 0 0 0 0 0 0 0 0 0 0 0 0 0 0 0 0 0 0 0 0 0 0 0 0 0 0 0 2 6 7 4 22 80 70 86 56 66 55 2 0 0 0 21 0 58 24 0 81 87 100
0 0 0 0 0 0 0 0 0 0 0 0 0 0 0 0 0 0 0 0 0 0 0 0 0 0 0 0 0 0 0 0 0 0 0 0 0 0 0 0 0 2 6 13 22 28 43 48 45 38 56 53 32 0 0 0 16 0 43 105 124 120 140
0 0 0 0 0 0 0 0 0 0 0 0 0 0 0 0 0 0 0 0 0 0 0 0 0 0 0 0 0 0 0 0 0 0 0 0 0 0 0 0 0 0 0 6 21 30 39 50 46 22 13 34 26 6 0 0 0 0 0 46 2 6 10
0 0 0 0 0 0 0 0 0 0 0 0 0 0 0 0 0 0 0 0 0 0 0 0 0 0 0 0 0 0 0 0 0 0 0 0 0 0 0 0 0 0 0 0 2 8 20 23 30 47 28 24 27 10 2 0 0 0 0 0 0 0 0
0 0 0 0 0 0 0 0 0 0 0 0 0 0 0 0 0 0 0 0 0 0 0 0 0 0 0 0 0 0 0 0 0 0 0 0 0 0 0 0 0 0 0 0 0 2 11 19 11 16 19 25 31 18 6 0 4 4 0 0 0 0 0
0 0 0 0 0 0 0 0 0 0 0 0 0 0 0 0 0 0 0 0 0 0 0 0 0 0 0 0 0 0 0 0 0 0 0 0 0 0 0 0 0 0 0 0 0 0 0 1 4 4 2 8 12 8 1 6 4 0 0 0 0 6 5
0 0 0 0 0 0 0 0 0 0 0 0 0 0 0 0 0 0 0 0 0 0 0 0 0 0 0 0 0 0 0 0 0 0 0 0 0 0 0 0 0 0 0 0 0 0 0 0 0 2 13 10 8 12 28 23 5 0 0 0 0 0 6
0 0 0 0 0 0 0 0 0 0 0 0 0 0 0 0 0 0 0 0 0 0 0 0 0 0 0 0 0 0 0 0 0 0 0 0 0 0 0 0 0 0 0 0 0 0 0 0 0 0 0 4 16 12 27 48 28 8 0 0 0 0 0
0 0 0 0 0 0 0 0 0 0 0 0 0 0 0 0 0 0 0 0 0 0 0 0 0 0 0 0 0 0 0 0 0 0 0 0 0 0 0 0 0 0 0 0 0 0 0 0 0 0 0 0 1 8 8 12 14 6 11 6 0 0 0
6 0 0 0 0 0 0 0 0 0 0 0 0 0 0 0 0 0 0 0 0 0 0 0 0 0 0 0 0 0 0 0 0 0 0 0 0 0 0 0 0 0 0 0 0 0 0 0 0 0 0 0 0 2 11 11 9 2 0 26 8 2 0
113 0 0 0 0 0 0 0 0 0 0 0 0 0 0 0 0 0 0 0 0 0 0 0 0 0 0 0 0 0 0 0 0 0 0 0 0 0 0 0 0 0 0 0 0 0 0 0 0 0 0 0 0 0 4 10 6 2 0 5 20 11 3
155 84 0 0 0 0 0 0 0 0 0 0 0 0 0 0 0 0 0 0 0 0 0 0 0 0 0 0 0 0 0 0 0 0 0 0 0 0 0 0 0 0 0 0 0 0 0 0 0 0 0 0 0 0 6 16 12 10 4 0 0 0 10
200 141 0 0 0 0 0 0 0 0 0 0 0 0 0 0 0 0 0 0 0 0 0 0 0 0 0 0 0 0 0 0 0 0 0 0 0 0 0 0 0 0 0 0 0 0 0 0 0 0 0 0 0 0 2 12 18 12 10 1 0 1 3
261 213 145 0 0 0 0 0 0 0 0 0 0 0 0 0 0 0 0 0 0 0 0 0 0 0 0 0 0 0 0 0 0 0 0 0 0 0 0 0 0 0 0 0 0 0 0 0 0 0 0 0 0 0 0 0 13 21 14 10 0 15 23
318 287 238 148 63 0 0 0 0 0 0 0 0 0 0 0 0 0 0 0 0 0 0 0 0 0 0 0 0 0 0 0 0 0 0 0 0 0 0 0 2 2 3 2 1 2 2 2 2 2 3 2 1 0 0 0 4 24 25 4 0 0 9
374 369 308 241 137 0 0 0 0 0 0 0 0 0 0 0 0 0 0 0 0 0 0 0 0 0 0 0 0 0 0 0 0 0 0 0 0 0 0 2 4 6 10 10 7 5 5 6 5 6 6 6 6 5 4 2 6 10 8 4 0 0 0
405 410 414 347 247 31 0 0 0 0 0 0 0 0 0 0 0 0 0 0 0 0 0 0 0 0 0 0 0 0 0 0 0 0 0 0 0 0 0 1 4 6 8 10 12 11 10 10 14 14 16 15 14 14 13 9 6 5 6 7 3 0 0
464 317 367 413 332 0 0 0 0 0 0 0 0 0 0 0 0 0 0 0 0 0 0 0 0 0 0 0 0 0 0 0 0 0 0 0 0 0 0 0 0 0 0 0 1 4 8 10 10 12 14 16 16 12 11 14 13 12 14 11 6 1 0
482 403 329 408 362 0 0 0 0 0 0 0 0 0 0 0 0 0 0 0 0 0 0 0 0 0 0 0 0 0 0 0 0 0 0 0 0 0 0 0 0 0 0 0 0 0 0 0 0 0 0 1 2 4 5 6 10 14 14 14 10 7 3
625 390 74 391 331 0 0 0 0 0 0 0 0 0 0 0 0 0 0 0 0 0 0 0 0 0 0 0 0 0 0 0 0 0 0 0 0 0 0 0 0 0 0 0 0 0 0 0 0 0 0 0 1 4 5 7 8 8 10 12 12 12 8
693 452 12 410 289 1 0 0 0 0 0 0 0 0 0 0 0 0 0 0 0 0 0 0 0 0 0 0 0 0 0 0 0 0 0 0 0 0 0 0 0 0 0 0 0 0 0 0 0 0 0 0 0 2 6 7 6 7 8 13 14 17 15
724 564 250 2 0 12 4 0 0 0 0 0 0 0 0 0 0 0 0 0 0 0 0 0 0 0 0 0 0 0 0 0 0 0 0 0 0 0 0 0 0 0 0 0 0 0 0 0 0 0 0 0 0 0 0 2 6 6 8 9 6 8 11
757 546 8 66 4 78 5 0 0 0 0 0 0 0 0 0 0 0 0 0 0 0 0 0 0 0 0 0 0 0 0 0 0 0 0 0 0 0 0 0 0 0 0 0 0 0 0 0 0 0 0 0 0 0 0 0 0 0 4 1 5 4 5
696 612 412 60 38 7 34 2 0 0 0 0 0 0 0 0 0 0 0 0 0 0 0 0 0 0 0 0 0 0 0 0 0 0 0 0 0 0 0 0 0 0 0 0 0 0 0 0 0 0 0 0 0 0 0 0 0 0 0 2 1 2 0
648 408 342 170 128 60 35 3 0 0 0 0 0 0 0 0 0 0 0 0 0 0 0 0 0 0 0 0 0 0 0 0 0 0 0 0 0 0 0 0 0 0 0 0 0 0 0 0 0 0 0 0 0 0 0 0 0 0 0 1 4 4 4
712 398 9 56 24 62 51 0 0 0 0 0 0 0 0 0 0 0 0 0 0 0 0 0 0 0 0 0 0 0 0 0 0 0 0 0 0 0 0 0 0 0 0 0 0 0 0 0 0 0 0 0 0 0 0 0 0 1 3 1 1 4 10
652 609 235 209 54 40 4 0 16 1 0 0 0 0 0 0 0 0 0 0 0 0 0 0 0 0 0 0 0 0 0 0 0 0 0 0 0 0 0 0 0 0 0 0 0 0 0 0 0 0 0 0 0 0 0 0 0 0 0 1 2 0 0
590 328 116 144 38 2 0 0 0 0 0 0 0 0 0 0 0 0 0 0 0 0 0 0 0 0 0 0 0 0 0 0 0 0 0 0 0 0 0 0 1 0 0 0 0 0 0 0 0 0 0 1 1 2 0 0 0 1 2 1 1 2 2
371 47 38 123 38 24 0 0 0 0 0 0 0 0 0 0 0 0 0 0 0 0 0 0 0 0 0 0 0 0 0 0 0 0 0 0 0 0 0 0 2 4 2 3 0 0 0 0 0 0 2 2 4 4 2 2 1 1 10 8 3 3 2
285 225 123 52 18 3 0 0 0 0 0 0 0 0 0 0 0 0 0 0 0 0 0 0 0 0 0 0 0 0 0 0 0 0 0 0 0 0 2 2 2 2 2 2 1 2 2 2 2 2 3 2 2 3 3 2 1 1 12 17 20 24 22
186 59 44 38 28 10 0 0 0 0 0 0 0 0 0 0 0 0 0 0 0 0 0 0 0 0 0 0 0 0 0 0 0 0 0 0 0 2 3 4 4 4 4 5 5 5 5 5 5 3 3 3 2 2 1 2 2 2 1 2 20 7 7
76 32 13 18 22 25 16 7 0 0 0 0 0 0 0 0 0 0 0 0 0 0 0 0 0 0 0 0 0 0 0 0 0 0 0 0 2 4 4 4 4 5 5 6 6 7 8 8 9 7 6 6 5 3 4 3 4 4 4 4 2 4 7
101 94 15 10 11 2 3 0 0 0 0 0 0 0 0 0 0 0 0 0 0 0 0 0 0 0 0 0 0 0 0 0 0 0 0 2 3 4 4 5 4 4 6 7 8 10 10 12 12 11 10 8 8 8 6 4 3 4 5 5 4 4 5
28 4 63 4 0 0 0 0 0 0 0 0 0 0 0 0 0 0 0 0 0 0 0 0 0 0 0 0 0 0 0 0 0 0 1 2 2 3 4 5 6 8 10 9 11 12 14 14 12 10 8 8 6 5 2 1 1 2 3 4 4 3 4

ECMWFFLT1_con_mucape_015.txt.gz
CAPE
17 19 7 10 16 2 0 0 0 0 0 1 3 1 2 2 4 3 2 0 0 0 0 0 0 0 0 0 0 0 0 0 0 0 0 0 7 3 6 95 184 214 170 127 141 169 191 212 273 83 225 303 249 257 285 262 228 262 336 435 292 312 465
0 0 0 0 4 3 0 0 0 0 0 0 0 0 0 0 0 0 0 0 0 0 0 0 0 0 0 0 0 0 0 0 0 0 0 0 2 2 2 1 3 10 73 165 117 131 88 79 19 20 18 16 14 276 20 265 227 284 288 297 272 188 206
0 0 0 7 7 0 0 0 0 0 0 0 0 0 0 0 0 0 0 0 0 0 0 0 0 0 0 0 0 0 0 0 0 0 0 0 0 1 2 3 2 0 2 20 18 2 15 86 62 77 100 16 5 117 80 30 21 120 225 301 313 203 180
0 0 0 0 0 0 0 0 0 0 0 0 0 0 0 0 0 0 0 0 0 0 0 0 0 0 0 0 0 0 0 0 0 0 0 0 1 0 0 1 3 3 4 2 4 2 5 5 10 15 40 13 3 12 38 70 88 60 64 178 325 303 272
7 0 0 1 0 0 0 0 0 0 0 0 0 0 0 0 0 0 0 0 0 0 0 0 0 0 0 0 0 0 0 0 0 0 0 0 0 0 0 0 1 2 5 6 3 6 10 7 9 5 2 1 1 2 13 65 68 77 82 88 100 148 231
27 6 6 17 8 4 0 0 0 0 0 0 0 0 0 0 0 0 0 0 0 0 0 0 0 0 0 0 0 0 0 0 0 0 0 0 0 0 0 0 0 0 0 2 3 6 5 6 11 11 4 5 5 0 0 5 22 53 52 35 70 101 118
33 20 16 3 7 4 0 2 0 0 0 1 0 0 0 0 0 0 0 0 0 0 0 0 0 0 0 0 0 0 0 0 0 0 0 0 0 0 0 0 0 0 0 0 0 0 1 1 3 4 4 2 4 0 0 0 0 4 48 53 41 33 24
49 17 15 7 12 3 0 9 14 8 4 5 0 0 0 0 0 0 0 0 0 0 0 0 0 0 0 0 0 0 0 0 0 0 0 0 0 0 0 0 0 0 0 0 0 0 0 1 1 3 6 2 0 0 0 0 0 0 0 0 28 11 0
16 16 7 0 0 8 0 3 13 23 9 10 4 0 0 0 0 0 0 0 0 0 0 0 0 0 0 0 0 0 0 0 0 0 0 0 0 0 0 0 0 0 0 0 0 0 0 0 0 1 4 8 4 0 0 0 0 0 0 0 0 4 22
17 13 8 3 1 0 0 1 7 25 41 15 1 0 0 0 0 0 0 0 0 0 0 0 0 0 0 0 0 0 0 0 0 0 0 0 0 0 0 0 0 0 0 0 0 0 0 0 0 0 0 3 7 5 0 0 0 0 0 0 0 0 0
9 12 8 1 0 0 0 0 0 1 0 5 3 0 0 0 0 0 0 0 0 0 0 0 0 0 0 0 0 0 0 0 0 0 0 0 0 0 0 0 0 0 0 0 0 0 0 0 0 0 0 0 2 2 0 0 0 0 0 0 0 0 1
7 7 1 0 0 0 0 0 0 0 1 0 0 0 0 0 0 0 0 0 0 0 0 0 0 0 0 0 0 0 0 0 0 0 0 0 0 0 0 0 0 0 0 0 0 0 0 0 0 0 0 2 3 4 2 3 0 0 0 0 0 0 0
7 0 0 0 0 0 0 0 0 0 0 0 1 0 0 0 0 0 0 0 0 0 0 0 0 0 0 0 0 0 0 0 0 0 0 0 0 0 0 0 0 0 0 0 0 0 0 0 0 0 0 0 1 4 6 4 2 0 0 0 0 0 0
0 0 0 0 0 0 0 0 0 0 0 0 0 0 0 0 0 0 0 0 0 0 0 0 0 0 0 0 0 0 0 0 0 0 0 0 0 0 0 0 0 0 0 0 0 0 0 0 0 0 0 0 1 2 3 5 2 0 0 0 0 0 0
42 0 2 12 0 0 0 0 0 0 0 0 0 0 0 0 0 0 0 0 0 0 0 0 0 0 0 0 0 0 0 0 0 0 0 0 0 0 0 0 0 0 0 0 0 0 0 0 0 0 0 0 0 0 4 2 2 0 0 0 0 0 0
38 39 9 18 7 0 0 0 0 0 0 0 0 0 0 0 0 0 0 0 0 0 0 0 0 0 0 0 0 0 0 0 0 0 0 0 0 0 0 0 0 0 0 0 0 0 0 0 0 0 0 0 0 1 1 1 1 0 0 0 0 0 0
53 55 53 54 23 7 7 0 0 0 0 0 0 0 0 0 0 0 0 0 0 0 0 0 0 0 0 0 0 0 0 0 0 0 0 0 0 0 0 0 0 0 0 0 0 0 0 0 0 0 0 0 0 0 1 3 3 1 0 0 0 0 0
175 225 201 90 31 33 7 0 0 0 0 0 0 0 0 0 0 0 0 0 0 0 0 0 0 0 0 0 0 0 0 0 0 0 0 0 0 0 0 0 0 0 0 0 0 0 0 0 0 0 0 0 0 0 0 0 0 1 1 0 0 0 0
343 326 298 248 166 39 20 12 0 0 0 0 0 0 0 0 0 0 0 0 0 0 0 0 0 0 0 0 0 0 0 0 0 0 0 0 0 0 0 0 0 0 0 0 0 0 0 0 0 0 0 0 0 0 0 0 0 0 0 0 0 0 0
498 481 396 370 321 254 189 14 29 26 13 0 0 0 0 0 0 0 0 0 0 0 0 0 0 0 0 0 0 0 0 0 0 0 0 0 0 0 0 0 0 0 0 0 0 0 0 0 0 0 0 0 0 0 0 0 0 0 0 0 0 0 0
453 488 540 506 436 387 349 299 223 66 71 53 29 5 28 62 4 0 0 0 0 0 0 0 0 0 0 0 0 0 0 0 0 0 0 0 0 0 0 0 0 0 0 0 0 0 0 0 0 0 0 0 0 0 0 0 0 0 0 0 0 0 0
384 426 525 542 580 578 559 523 476 413 338 126 94 7 0 10 2 0 0 0 0 0 0 0 0 0 0 0 0 0 0 0 0 0 0 0 0 0 0 0 0 0 0 0 0 0 0 0 0 0 0 0 0 0 0 0 0 0 0 0 0 0 0
276 232 331 432 496 530 543 551 564 541 490 462 345 50 29 35 15 6 0 0 0 0 0 0 0 0 0 0 0 0 0 0 0 0 0 0 0 0 0 0 0 0 0 0 0 0 0 0 0 0 0 0 0 0 0 0 0 0 0 0 0 0 0
168 228 199 136 318 395 431 466 507 531 533 562 484 355 188 27 46 34 26 8 20 26 0 0 0 0 0 0 0 0 0 0 0 0 0 0 0 0 0 0 0 0 0 0 0 0 0 0 0 0 0 0 0 0 0 1 0 0 0 0 0 0 0
24 132 170 114 52 261 335 400 435 453 488 497 388 156 285 216 67 19 4 23 54 42 5 0 0 0 0 0 0 0 0 0 0 0 0 0 0 0 0 0 0 0 0 0 0 0 0 0 0 0 0 0 0 0 0 0 0 0 0 0 0 0 0
3 27 52 59 18 0 246 302 345 383 432 468 427 370 322 236 58 3 0 39 74 78 23 1 0 0 0 0 0 0 0 0 0 0 0 0 0 0 0 0 0 0 0 0 0 0 0 0 0 0 0 0 0 0 0 0 0 1 0 0 0 0 0
0 9 15 7 0 0 0 52 263 320 377 414 409 345 264 233 110 0 0 11 47 79 58 24 12 0 0 0 0 0 0 0 0 0 0 0 0 0 0 0 0 0 0 0 0 0 0 0 0 0 0 0 0 0 0 0 0 0 0 2 2 0 0
0 0 0 1 1 0 0 0 0 273 325 351 383 342 192 0 10 12 0 8 31 39 34 14 6 0 0 0 0 0 0 0 0 0 0 0 0 0 0 0 0 0 0 0 0 0 0 0 0 0 0 0 0 0 0 0 1 2 0 1 3 3 1
0 0 0 0 0 0 0 0 0 0 369 397 356 333 241 50 68 59 33 26 25 14 9 12 3 0 0 0 0 0 0 0 0 0 0 0 0 0 0 0 0 0 0 0 0 0 0 0 0 0 0 0 0 0 1 1 0 0 1 2 3 2 2
0 0 0 0 0 0 0 0 0 0 173 338 379 332 244 124 28 31 21 4 0 0 0 0 0 0 0 0 0 0 0 0 0 0 0 0 0 0 0 0 0 0 0 0 0 0 0 0 0 0 0 1 1 1 2 2 1 0 0 1 1 1 0
0 0 1 1 0 0 0 0 0 0 0 0 0 74 230 26 48 70 47 34 0 0 0 0 0 0 0 0 0 0 0 0 0 0 0 0 0 0 0 0 0 0 0 0 0 0 0 0 2 1 1 1 0 0 0 2 2 1 0 0 1 1 1
0 0 1 2 2 0 0 24 104 122 179 89 211 164 48 0 53 63 8 12 0 0 0 1 1 0 0 0 0 0 0 0 0 0 0 0 0 0 0 0 0 0 0 0 0 0 0 1 5 3 0 1 2 0 0 1 0 2 0 1 2 2 3
0 0 1 2 3 0 2 24 135 181 232 250 266 150 91 16 10 0 0 0 0 0 0 0 0 0 0 0 0 0 0 0 0 0 0 0 0 0 0 0 0 0 0 0 0 0 0 1 1 3 0 3 0 0 3 4 0 0 4 0 0 0 0
0 0 0 1 1 0 10 76 153 84 255 214 17 40 21 6 3 0 0 0 0 0 0 0 0 0 0 0 0 0 0 0 0 0 0 0 0 0 0 0 0 0 0 0 0 0 1 2 2 2 1 1 1 1 1 1 1 0 0 4 2 0 0
0 1 2 0 1 2 13 73 124 6 178 56 1 1 9 2 0 0 0 0 0 0 0 0 0 2 0 0 0 0 0 0 0 0 0 0 0 0 0 0 0 0 0 0 0 1 0 1 1 2 1 1 1 2 2 1 1 1 0 1 2 2 1
1 2 0 0 5 6 18 0 61 8 13 27 13 12 1 0 0 0 1 0 0 1 5 4 7 1 0 0 0 0 0 0 0 0 0 0 0 0 0 0 0 1 0 0 0 0 0 0 1 2 0 1 2 3 4 1 1 0 0 0 2 1 1
2 0 0 7 9 18 36 44 0 7 40 19 2 11 1 3 3 0 0 0 0 2 3 6 1 1 0 0 0 0 0 0 0 0 0 0 0 0 0 1 1 0 0 0 0 0 0 0 1 0 0 1 2 2 1 0 1 1 1 1 2 1 0

ECMWFFLT1_con_mucape_021.txt.gz
CAPE
3 21 15 29 14 10 8 12 7 14 41 29 33 4 0 0 0 0 0 0 0 0 0 0 3 3 1 0 3 24 39 196 198 200 118 289 375 250 507 567 601 615 666 660 552 611 228 199 939 1210 628 380 874 1167 1037 987 763 1392 1700 1229 410 833 423
22 17 11 7 8 16 17 15 13 7 39 50 19 23 1 0 0 0 0 0 0 0 0 0 1 2 11 18 12 22 13 25 22 7 149 88 45 101 62 206 76 137 348 550 541 518 253 137 92 246 396 310 596 965 1140 908 751 1301 1138 1098 850 711 1146
9 0 5 4 28 22 18 18 11 9 8 10 24 0 0 0 0 0 0 0 0 0 0 0 0 0 0 0 0 0 1 2 7 15 10 0 0 0 0 0 1 5 14 35 326 253 51 157 72 43 45 330 353 263 611 811 708 400 232 433 794 631 530
18 4 21 10 17 44 10 6 5 2 1 2 1 0 0 0 0 0 0 0 0 0 0 0 0 0 0 0 0 0 0 4 0 0 0 0 0 0 0 0 0 0 16 4 8 0 0 0 0 0 0 0 0 9 43 51 56 4 51 155 26 12 98
32 16 116 38 28 88 30 10 16 3 2 0 0 0 0 0 0 0 0 0 0 0 0 0 0 0 0 0 0 0 0 0 0 0 0 0 0 0 0 0 0 0 0 0 0 0 0 0 0 0 0 0 0 0 0 0 0 0 17 9 0 0 91
67 14 185 64 85 63 48 10 18 8 12 0 0 0 0 0 0 0 0 0 0 0 0 0 0 0 0 0 0 0 0 0 0 0 0 0 0 0 0 0 0 0 0 0 0 0 0 0 0 0 0 0 0 0 0 0 0 0 0 0 0 12 7
69 58 78 118 100 63 82 54 19 10 19 11 0 0 0 0 0 0 0 0 0 0 0 0 0 0 0 0 0 0 0 0 0 0 0 0 0 0 0 0 0 0 0 0 0 0 0 0 0 0 0 0 0 0 0 0 0 0 0 0 0 0 0
186 73 50 58 118 56 96 86 19 19 21 38 11 0 0 0 0 0 0 0 0 0 0 0 0 0 0 0 0 0 0 0 0 0 0 0 0 0 0 0 0 0 0 0 0 0 0 0 0 0 0 0 0 0 0 0 0 0 0 0 0 0 0
316 152 40 35 162 86 151 175 33 21 51 79 89 27 0 0 0 0 0 0 0 0 0 0 0 0 0 0 0 0 0 0 0 0 0 0 0 0 0 0 0 0 0 0 0 0 0 0 0 0 0 0 0 0 0 0 0 0 0 0 0 0 0
661 460 180 85 281 193 183 213 79 35 78 109 162 149 0 0 1 1 0 0 0 0 0 0 0 0 0 0 0 0 0 0 0 0 0 0 0 0 0 0 0 0 0 0 0 0 0 0 0 0 0 0 0 0 0 0 0 0 0 0 0 0 0
775 693 484 282 279 358 228 158 124 76 67 108 196 268 15 9 21 0 0 0 0 0 0 0 0 0 0 0 0 0 0 0 0 0 0 0 0 0 0 0 0 0 0 0 0 0 0 0 0 0 0 0 0 0 0 0 0 0 0 0 0 0 0
884 775 679 589 648 588 363 182 116 175 135 143 210 402 124 76 49 8 29 10 1 0 0 0 0 0 0 0 0 0 0 0 0 0 0 0 0 0 0 0 0 0 0 0 0 0 0 0 0 0 0 0 0 0 0 0 0 0 0 0 0 0 0
786 723 720 618 667 722 557 292 154 180 233 188 255 493 185 142 94 52 25 32 14 0 0 0 0 0 0 0 0 0 0 0 0 0 0 0 0 0 0 0 0 0 0 0 0 0 0 0 0 0 0 0 0 0 0 0 0 0 0 0 0 0 0
1006 721 664 633 705 589 646 438 198 152 269 345 290 530 257 167 122 113 62 42 36 10 0 0 0 0 0 0 0 0 0 0 0 0 0 0 0 0 0 0 0 0 0 0 0 0 0 0 0 0 0 0 0 0 0 0 0 0 0 0 0 0 0
1013 1020 908 780 867 863 525 554 545 382 194 399 300 463 320 236 170 149 88 86 76 23 0 0 0 0 0 0 0 0 0 0 0 0 0 0 0 0 0 0 0 0 0 0 0 0 0 0 0 0 0 0 0 0 0 0 0 0 0 0 0 0 0
511 756 810 889 899 929 677 626 468 344 535 96 304 376 300 281 245 222 171 148 116 73 23 1 0 0 0 0 0 0 0 0 0 0 0 0 0 0 0 0 0 0 0 0 0 0 0 0 0 0 0 0 0 0 0 0 0 0 0 0 0 0 0
673 644 558 579 360 120 759 852 422 475 591 327 47 87 35 8 292 317 266 218 186 129 69 17 1 0 0 0 0 0 0 0 0 0 0 0 0 0 0 0 0 0 0 0 0 0 0 0 0 0 0 0 0 0 0 0 0 0 0 0 0 0 0
925 1063 1087 1065 1207 904 555 607 798 292 698 619 464 687 577 129 363 371 376 300 256 200 125 53 15 0 0 0 0 0 0 0 0 0 0 0 0 0 0 0 0 0 0 0 0 0 0 0 0 0 0 0 0 0 0 0 0 0 0 0 0 0 0
1133 1253 1200 1429 1008 583 681 777 622 85 52 609 25 346 440 472 334 395 433 383 339 270 204 115 48 8 0 0 0 1 4 0 0 0 0 0 0 0 0 0 0 0 0 0 0 0 0 0 0 0 0 0 0 0 0 0 0 0 0 0 0 0 0
1006 992 952 1081 1083 1011 982 1061 983 594 546 545 514 234 122 411 319 426 495 496 411 342 241 136 96 43 1 0 0 16 21 13 0 0 0 0 0 0 0 0 0 0 0 0 0 0 0 0 0 0 0 0 0 0 0 0 0 0 0 0 0 0 0
120 460 742 1025 1026 1066 1044 1043 1029 974 750 759 543 530 419 127 106 98 504 554 463 373 178 155 64 54 146 118 99 29 20 19 2 0 0 0 0 0 0 0 0 0 0 0 0 0 0 0 0 0 0 0 0 0 0 0 0 0 0 0 0 0 0
0 1 21 181 442 724 1011 1040 936 781 736 912 684 736 571 353 666 657 703 657 528 304 47 71 105 119 190 171 155 138 48 8 4 0 0 0 0 0 0 0 0 0 0 0 0 0 0 0 0 0 0 0 0 0 0 0 0 0 0 0 0 0 0
0 0 4 5 21 116 351 410 485 962 968 863 876 745 600 757 417 594 775 422 123 84 68 63 76 18 169 177 176 56 74 65 0 0 0 0 0 0 0 0 0 0 0 0 0 0 0 0 0 0 0 0 0 0 0 0 0 0 0 0 0 0 0
0 0 0 5 5 12 36 110 377 600 642 750 883 858 642 570 781 555 696 420 188 184 172 105 114 88 210 267 268 65 63 42 30 15 0 0 0 0 0 0 0 0 0 0 0 0 0 0 0 0 0 0 0 0 0 0 0 0 0 0 0 0 0
0 0 0 0 15 35 34 37 85 282 493 546 600 721 844 748 705 744 801 314 305 106 98 154 150 139 194 316 379 207 89 81 90 49 1 0 0 0 0 0 0 0 0 0 0 0 0 0 0 0 0 0 0 0 0 0 0 0 0 0 0 0 0
0 0 0 0 0 10 26 77 79 84 240 466 523 522 566 690 698 678 619 428 340 270 49 12 99 145 399 207 101 94 110 57 38 65 5 0 0 0 0 0 0 0 0 0 0 0 0 0 0 0 0 0 0 0 0 0 0 0 0 0 0 0 0
0 0 0 0 0 0 0 9 53 157 250 310 463 536 507 516 648 650 604 509 331 179 80 0 164 281 326 333 285 217 101 1 0 0 0 0 0 0 0 0 0 0 0 0 0 0 0 0 0 0 0 0 0 0 0 0 0 0 0 0 0 0 0
0 0 0 0 0 0 0 0 4 32 66 209 346 412 510 519 536 620 538 498 272 186 4 0 0 10 86 102 152 8 6 0 0 0 0 0 0 0 0 0 0 0 0 0 0 0 0 0 0 0 0 0 0 0 0 0 0 0 0 0 0 0 0
0 0 0 0 0 0 0 1 28 69 47 66 131 252 291 330 496 606 545 437 462 0 13 0 8 3 4 57 10 17 0 0 0 0 0 0 0 0 0 0 0 0 0 0 0 0 0 0 0 0 0 0 0 0 0 0 0 0 0 1 0 0 2
0 0 0 0 0 0 0 0 6 99 87 73 137 182 253 251 342 433 419 362 165 0 0 0 1 28 58 18 6 12 2 2 3 2 0 0 0 0 0 0 0 0 0 0 0 0 0 0 0 0 0 0 0 0 0 0 0 0 0 0 0 0 0
0 0 0 0 0 0 0 0 0 28 131 138 138 188 202 178 207 298 322 378 0 0 0 0 5 31 14 7 7 2 1 0 3 0 1 0 0 0 0 0 0 0 0 0 0 0 0 0 0 0 0 0 0 0 0 0 0 0 0 0 0 0 0
0 0 0 0 0 0 0 2 9 18 92 162 167 151 102 166 279 268 271 53 0 0 0 17 62 37 11 17 5 6 0 1 9 3 1 2 1 0 0 0 0 0 0 0 0 0 0 0 0 0 0 0 0 0 0 0 0 0 0 0 1 4 0
0 0 0 0 0 0 0 2 13 77 131 89 71 102 78 112 196 0 0 0 0 0 6 33 42 57 36 14 1 0 3 3 2 4 2 1 1 0 0 0 0 0 0 0 0 0 0 0 0 0 0 0 0 0 0 0 0 0 0 0 0 0 0
0 4 6 5 18 33 43 65 88 124 146 83 64 85 133 156 35 0 0 18 12 13 44 32 44 24 0 0 0 3 6 5 3 0 0 0 0 0 0 0 0 0 0 0 0 0 0 0 0 0 0 0 0 0 0 0 0 0 0 0 0 0 0
5 33 51 54 71 100 87 123 157 157 66 105 206 233 5 0 0 0 0 3 46 51 0 12 0 0 0 0 2 2 2 1 0 0 0 0 0 0 0 0 0 0 0 0 0 0 0 0 0 0 0 0 0 0 0 0 0 0 1 2 0 1 1
0 21 54 88 92 105 118 146 168 143 212 141 96 18 0 1 6 4 30 29 46 49 23 13 2 4 4 4 2 2 1 1 6 7 4 3 1 0 0 0 0 0 0 0 0 0 0 0 0 0 0 0 0 0 0 2 2 0 3 0 1 1 1
0 4 14 38 60 70 80 85 80 67 102 71 1 4 3 3 6 25 49 42 19 4 9 23 11 4 2 6 8 9 10 16 16 3 5 0 0 0 0 0 0 0 0 0 0 0 0 0 0 0 0 0 0 0 0 2 0 0 0 0 1 0 1

ECMWFFLT1_con_mucape_024.txt.gz
CAPE
467 180 449 503 448 175 251 143 45 336 151 151 182 21 5 15 58 32 14 4 40 0 2 0 0 0 10 3 86 502 472 503 404 225 264 404 309 332 417 713 877 841 786 923 772 924 562 412 731 1309 935 905 715 963 1180 1092 1159 1080 1988 1893 1734 1256 1211
232 258 96 14 243 250 102 194 290 42 226 136 3 1 0 0 0 0 0 0 0 0 0 0 0 0 0 0 3 13 66 97 326 272 30 116 321 179 167 286 483 781 724 832 690 710 728 553 447 266 228 510 827 952 1227 1294 1089 1344 1623 1572 1439 1094 1317
150 73 33 216 211 219 199 199 77 262 10 135 97 1 0 0 0 0 0 0 0 0 0 0 0 0 0 0 3 6 7 5 0 0 23 53 96 43 59 282 211 238 454 462 501 563 472 201 132 137 150 110 378 778 1086 1576 1344 1043 943 1035 1299 1042 1011
147 270 147 238 194 265 142 128 189 228 219 58 1 0 0 0 0 0 0 0 0 0 0 0 0 0 0 0 0 0 1 4 1 0 0 0 0 0 0 0 0 0 0 0 0 0 0 0 0 0 0 0 0 44 387 653 870 728 567 441 468 580 617
223 301 235 244 200 226 214 126 406 159 188 132 48 0 0 0 0 0 0 0 0 0 0 0 0 0 0 0 2 2 3 4 4 2 0 0 0 0 0 0 0 0 0 0 0 0 0 0 0 0 0 0 0 0 0 358 326 54 24 6 19 149 216
321 460 245 398 234 405 215 230 255 264 115 22 30 0 0 0 0 0 0 0 0 0 0 0 0 0 0 0 0 0 0 0 0 0 0 0 0 0 0 0 0 0 0 0 0 0 0 0 0 0 0 0 0 0 0 0 0 0 0 0 0 0 0
505 684 420 437 368 462 319 396 318 376 204 170 55 18 0 0 0 0 0 0 0 0 0 0 0 0 0 0 0 0 0 0 0 0 0 0 0 0 0 0 0 0 0 0 0 0 0 0 0 0 0 0 0 0 0 0 0 0 0 0 0 0 0
577 497 782 550 475 598 368 465 373 539 386 237 110 90 0 10 56 4 0 0 0 0 0 0 0 0 0 0 0 0 0 0 0 0 0 0 0 0 0 0 10 0 0 0 0 0 0 0 0 0 0 0 0 0 0 0 0 0 0 0 0 0 14
378 485 478 629 621 778 681 514 432 586 536 445 219 96 6 33 104 48 0 0 0 0 0 0 0 0 0 0 0 0 0 0 0 0 0 0 0 0 0 0 0 0 0 0 0 0 0 0 0 0 0 0 0 0 0 0 0 0 0 0 0 0 0
537 542 403 805 676 589 970 662 437 424 808 608 436 205 28 79 174 63 4 4 0 0 0 0 0 0 0 0 0 0 0 0 0 0 0 0 0 0 0 0 0 0 0 0 0 0 0 0 0 0 0 0 0 0 0 0 0 0 0 0 0 0 0
1050 866 537 941 938 554 823 995 683 385 761 760 580 266 74 130 195 127 41 46 9 2 0 0 0 0 0 0 0 0 0 0 0 0 0 0 0 0 0 0 0 0 0 0 0 0 0 0 0 0 0 0 0 0 0 0 0 0 0 0 0 0 0
1430 1366 1138 1050 1032 771 743 729 748 568 574 665 608 418 167 115 236 149 138 64 34 14 3 1 0 0 0 1 0 0 0 0 0 0 0 0 0 0 0 0 0 0 0 0 0 0 0 0 0 0 0 0 0 0 0 0 0 0 0 0 0 0 0
1193 1275 1067 791 1136 1088 872 763 919 689 818 580 848 580 209 165 204 169 116 157 77 19 5 4 0 0 0 2 0 0 0 0 0 0 0 0 0 0 0 0 0 0 0 0 0 0 0 0 0 0 0 0 0 0 0 0 0 0 0 0 0 0 0
1401 1250 835 779 525 934 822 947 827 921 599 312 449 797 526 315 197 178 103 166 95 32 4 7 0 0 0 1 0 0 0 0 0 0 0 0 0 0 0 0 0 0 0 0 0 0 0 0 0 0 0 0 0 0 0 0 0 0 0 0 0 0 0
1464 1225 1389 1241 780 730 458 798 961 703 1269 582 202 492 552 494 354 244 123 112 138 75 32 0 0 0 0 0 0 0 0 0 0 0 0 0 0 0 0 0 0 0 0 0 0 0 0 0 0 0 0 0 0 0 0 0 0 0 0 0 0 0 0
1044 809 759 847 1224 839 586 538 845 1098 891 678 703 440 348 383 385 312 235 188 132 129 72 4 1 0 0 1 0 0 0 0 0 0 0 0 0 0 0 0 0 0 0 0 0 0 0 0 0 0 0 0 0 0 0 0 0 0 0 0 0 0 0
1176 743 661 682 799 483 438 516 681 924 950 850 671 665 713 505 290 233 273 254 181 187 128 52 21 0 0 0 0 0 0 0 0 0 0 0 0 0 0 0 0 0 0 0 0 0 0 0 0 0 0 0 0 0 0 0 0 0 0 0 0 0 0
1299 1231 952 682 976 928 619 494 403 775 989 1002 823 720 876 743 684 401 339 304 201 202 185 109 47 19 1 0 0 0 0 0 0 0 0 0 0 0 0 0 0 0 0 0 0 0 0 0 0 0 0 0 0 0 0 0 0 0 0 0 0 0 0
1314 1350 1478 1472 1364 1058 923 790 621 606 699 648 602 1025 437 437 521 531 349 308 211 197 171 133 117 69 11 0 1 0 0 0 0 0 0 0 0 0 0 0 0 0 0 0 0 0 0 0 0 0 0 0 0 0 0 0 0 0 0 0 0 0 0
1041 1061 1333 1424 1618 1035 714 483 488 580 626 376 268 523 40 281 252 411 436 299 299 114 74 69 178 160 141 93 0 0 0 0 0 0 0 0 0 0 0 0 0 0 0 0 0 0 0 0 0 0 0 0 0 0 0 0 0 0 0 0 0 0 0
847 991 1176 1262 1284 1378 1253 1048 819 865 821 468 358 589 478 374 365 349 478 456 67 170 137 134 124 133 131 180 209 168 0 0 0 0 0 0 0 0 0 0 0 0 0 0 0 0 0 0 0 0 0 0 0 0 0 0 0 0 0 0 0 0 0
8 12 280 1066 1461 1446 1366 1244 1194 1241 952 761 886 984 815 519 353 294 238 90 212 668 356 191 18 82 105 206 122 216 166 29 0 3 0 0 0 0 0 0 0 0 0 0 0 0 0 0 0 0 0 0 0 0 0 0 0 0 0 0 0 0 0
40 19 19 36 59 215 592 1179 1258 1344 1381 1172 918 779 628 519 366 371 433 432 425 303 494 317 39 15 54 95 63 215 188 60 3 58 22 0 0 140 146 48 44 0 0 0 0 0 0 0 0 0 0 0 0 0 0 0 0 0 0 0 0 0 0
0 0 5 14 20 22 15 165 715 1220 1237 906 724 622 677 643 648 579 423 325 385 404 361 411 239 19 48 50 128 182 192 40 78 44 16 7 127 172 174 164 133 0 0 0 0 0 0 0 0 0 0 0 0 0 0 0 0 0 0 0 0 0 0
0 0 0 0 2 8 48 63 57 98 265 744 986 973 1015 1006 881 878 713 721 606 496 467 429 351 186 79 138 130 221 184 53 55 13 33 104 117 97 3 9 5 0 0 0 0 0 0 0 0 0 0 0 0 0 0 0 0 0 0 0 0 0 0
0 0 0 0 1 1 0 4 16 104 154 294 502 626 694 789 808 911 943 850 887 763 618 510 410 284 224 244 216 184 171 0 73 44 42 36 6 0 0 1 3 0 0 0 0 0 0 0 0 0 0 0 0 0 0 0 0 0 0 0 0 0 0
0 0 1 2 0 1 1 2 25 51 95 179 296 466 629 645 722 735 806 780 785 696 579 511 404 368 371 305 255 198 57 0 14 20 16 0 0 0 0 1 2 2 0 0 0 0 0 0 0 0 0 0 0 0 0 0 0 0 0 0 0 0 0
0 0 0 0 1 1 6 17 25 31 31 73 141 228 294 350 503 540 587 753 652 404 405 450 454 431 383 330 251 116 0 3 4 3 2 0 0 0 2 3 2 2 1 0 0 0 0 0 0 0 0 0 0 0 0 0 0 0 0 0 0 0 0
0 0 0 0 0 0 4 15 21 28 38 80 82 77 114 246 381 520 623 620 623 450 341 352 367 358 363 315 224 0 2 12 9 4 4 3 1 1 4 6 6 6 4 0 0 0 0 0 0 0 0 0 0 0 0 0 0 0 0 0 0 0 0
0 0 0 0 0 0 1 23 32 20 14 63 124 141 113 168 198 260 371 472 396 295 306 324 347 350 315 271 0 0 12 26 17 8 2 2 2 0 0 4 1 9 10 3 0 0 0 0 0 0 0 0 0 0 0 0 0 0 0 0 0 0 0
0 0 0 0 0 0 0 0 0 0 1 5 41 105 133 136 168 200 252 262 288 266 310 332 320 284 257 30 0 0 14 53 36 8 2 2 3 3 4 2 4 3 2 0 0 0 0 0 0 0 0 0 0 0 0 0 0 0 0 0 0 0 0
0 0 0 0 0 0 0 0 0 3 10 13 15 66 70 24 148 14 0 0 121 117 214 263 287 272 216 195 161 100 81 62 35 20 9 7 0 3 2 3 0 2 5 0 0 0 0 0 0 0 0 0 0 0 0 0 0 0 0 0 0 0 0
4 2 1 5 28 27 25 5 4 4 12 6 13 40 57 28 24 0 0 0 0 0 0 72 205 180 164 140 108 68 41 37 13 7 2 2 0 1 8 10 4 1 0 0 0 0 0 0 0 0 0 0 0 0 0 0 0 0 0 0 0 0 0
5 10 9 22 28 18 12 21 50 60 83 75 100 140 208 0 0 0 0 0 0 0 0 0 0 22 64 66 48 34 22 21 13 6 6 4 5 8 8 5 0 0 0 2 3 1 0 0 0 0 0 0 0 0 0 0 0 0 0 0 0 0 0
1 19 27 38 67 53 35 42 54 100 85 108 174 251 0 0 0 0 0 0 0 0 0 0 0 0 3 9 20 23 10 4 5 6 6 4 5 7 10 7 0 1 2 3 2 0 0 0 0 0 0 0 0 0 0 0 0 0 0 0 0 0 0
0 1 4 18 32 46 67 70 84 110 164 207 330 126 0 0 0 0 0 0 0 0 0 4 5 10 13 9 6 4 16 5 9 12 9 6 5 7 5 7 1 0 1 0 0 0 0 0 0 0 0 0 0 0 0 0 0 0 0 0 0 0 0
0 0 0 4 15 38 55 72 74 92 95 192 124 65 0 0 0 0 0 0 0 2 1 5 17 13 11 10 3 19 30 25 15 12 10 10 8 3 8 8 6 3 0 0 0 0 0 0 0 0 0 0 0 0 0 0 0 0 0 1 1 2 2

ECMWFFLT1_con_mucape_030.txt.gz
CAPE
0 0 0 0 0 0 0 0 0 0 0 0 0 0 0 0 0 0 0 137 7 0 0 0 0 0 0 0 427 492 527 604 661 596 507 516 455 429 455 480 358 451 736 425 366 90 10 5 4 370 707 862 770 808 808 742 886 1095 860 742 879 757 607
0 0 0 0 0 0 0 0 0 0 0 0 0 0 0 0 0 0 0 0 0 0 0 0 0 0 0 0 0 0 0 87 414 424 460 455 442 433 310 494 369 652 542 360 118 372 200 103 45 4 2 0 267 528 496 469 484 602 725 856 1039 1043 814
0 0 0 0 0 0 0 0 0 0 0 0 0 0 0 0 0 0 0 0 0 0 0 0 0 0 0 0 0 0 0 0 96 199 282 254 280 324 289 272 187 424 242 4 11 10 497 199 15 1 0 0 0 2 0 112 386 570 611 663 726 1150 1201
0 0 0 0 0 0 0 0 0 0 0 0 0 0 0 0 0 0 0 0 0 0 0 0 0 0 0 0 0 0 0 0 0 0 26 20 132 208 142 66 79 324 326 69 7 10 16 18 8 9 8 1 0 0 0 0 0 50 243 589 710 831 896
0 0 0 0 0 0 0 0 0 0 0 0 0 0 0 0 0 0 0 0 0 0 0 0 0 0 0 0 0 0 0 0 0 0 0 0 0 0 0 0 0 66 12 0 0 0 0 8 4 7 2 0 0 0 0 0 0 0 0 0 0 0 0
0 0 0 0 0 0 0 0 0 0 0 0 0 0 0 0 0 0 0 0 0 0 0 0 0 0 0 0 0 0 0 0 0 0 0 0 0 0 0 0 0 0 0 0 0 0 0 0 0 0 0 0 0 0 0 0 0 0 0 0 0 0 0
0 0 0 0 0 0 0 0 0 0 0 0 0 0 0 0 0 0 0 0 0 0 0 0 0 0 0 0 0 0 0 0 0 0 0 0 0 0 0 0 0 0 0 0 0 0 0 0 0 0 0 0 0 0 0 0 0 0 0 0 0 0 112
0 0 0 0 0 0 0 0 0 0 0 0 0 0 0 0 0 0 0 0 0 0 0 0 0 0 0 0 0 0 0 0 0 0 0 0 0 0 0 0 0 0 0 0 0 0 0 0 0 0 0 0 0 0 0 0 0 0 0 0 0 0 0
0 0 0 0 0 0 0 0 0 0 0 0 0 0 0 0 0 0 0 0 0 0 0 0 0 0 0 0 0 0 0 0 0 0 0 0 0 0 0 0 0 0 0 0 0 0 0 0 0 0 0 0 0 0 0 0 0 0 0 0 0 0 0
0 0 0 0 0 0 0 0 0 0 0 0 0 0 0 0 0 0 0 0 0 0 0 0 0 0 0 0 0 0 0 0 0 0 0 0 0 0 0 0 0 0 0 0 0 0 0 0 0 0 0 0 0 0 0 0 0 0 0 0 0 0 0
0 0 0 0 0 0 0 0 65 73 0 0 0 0 0 0 0 0 0 0 0 0 0 0 0 0 0 0 0 0 0 0 0 0 0 0 0 0 0 0 0 0 0 0 0 0 0 0 0 0 0 0 0 0 0 0 0 0 0 0 0 0 0
0 0 0 0 0 0 0 142 129 152 116 111 0 0 0 0 0 0 0 0 0 0 0 0 0 0 0 0 0 0 0 0 0 0 0 0 0 0 0 0 0 0 0 0 0 0 0 0 0 0 0 0 0 0 0 0 0 0 0 0 0 0 0
0 0 0 1 4 173 0 208 218 234 174 172 157 0 0 0 0 0 0 0 0 0 0 0 0 0 0 0 0 0 0 0 0 0 0 0 0 0 0 0 0 0 0 0 0 0 0 0 0 0 0 0 0 0 0 0 0 0 0 0 0 0 0
23 1 17 16 12 14 111 229 303 285 226 220 133 113 11 15 7 2 0 0 0 0 0 0 0 0 0 0 0 0 0 0 0 0 0 0 0 0 0 0 0 0 0 0 0 0 0 0 0 0 0 0 0 0 0 0 0 0 0 0 0 0 0
19 13 25 31 25 4 0 13 346 58 72 107 86 69 46 35 27 16 6 11 4 0 0 0 0 0 0 0 0 0 0 0 0 0 0 0 0 0 0 0 0 0 0 0 0 0 0 0 0 0 0 0 0 0 0 0 0 0 0 0 0 0 0
22 20 29 49 17 5 3 1 3 10 64 117 116 98 59 25 16 1 2 0 1 4 0 0 0 0 0 0 0 0 0 0 0 0 0 0 0 0 0 0 0 0 0 0 0 0 0 0 0 0 0 0 0 0 0 0 0 0 0 0 0 0 0
8 21 16 6 0 76 0 5 18 6 19 59 44 58 39 20 214 11 0 142 139 12 6 6 1 0 0 0 0 0 0 0 0 0 0 0 0 0 0 0 0 0 0 0 0 0 0 0 0 0 0 0 0 0 0 0 0 0 0 0 0 0 0
26 94 108 2 1 2 3 4 242 287 268 345 326 325 338 295 240 21 0 0 167 174 54 15 14 12 1 0 0 0 0 0 0 0 0 0 0 0 0 0 0 0 0 0 0 0 0 0 0 0 0 0 0 0 0 0 0 0 0 0 0 0 0
175 267 76 226 324 0 0 45 33 465 413 533 418 407 410 375 333 279 258 238 213 207 217 214 46 15 17 2 116 205 133 0 0 0 0 0 0 0 0 0 0 0 0 0 0 0 0 0 0 0 0 0 0 0 0 0 0 0 0 0 0 0 0
232 387 430 431 336 272 256 134 143 1 342 438 587 531 456 421 436 414 392 343 290 261 278 276 253 247 249 243 231 230 238 191 0 0 0 0 0 0 0 0 0 0 0 0 0 0 0 2 2 7 5 2 0 0 0 0 0 0 0 0 0 0 0
482 521 546 570 524 526 409 367 0 249 356 401 479 549 560 542 510 450 452 411 354 326 345 346 358 347 333 318 329 315 289 262 214 51 36 0 0 0 0 0 0 0 0 0 0 0 0 1 6 8 8 6 4 0 0 0 0 0 0 0 0 0 0
709 645 464 559 676 605 479 398 283 302 326 290 275 368 437 480 516 528 525 495 433 325 235 287 310 323 360 376 348 327 309 274 268 254 227 188 183 121 0 1 0 0 0 0 48 0 0 3 4 4 5 7 4 1 0 0 0 0 0 0 0 0 0
713 789 854 890 866 881 842 740 638 578 516 474 496 502 566 578 525 458 359 326 174 160 286 374 312 302 119 114 113 286 290 293 302 304 296 259 235 216 186 148 0 0 0 62 83 38 0 4 7 7 8 8 6 3 0 0 0 0 0 0 0 0 0
286 479 582 764 822 926 913 829 815 793 832 893 898 872 829 810 790 754 700 631 617 627 633 622 587 543 494 458 424 390 355 337 320 317 314 305 288 272 249 211 153 0 0 83 92 78 8 0 0 0 6 8 6 6 2 0 0 0 0 0 0 0 0
0 0 0 89 322 507 717 832 896 970 960 997 986 920 888 855 838 830 813 771 716 670 673 690 660 650 644 618 556 480 404 348 330 302 350 356 364 317 290 238 176 0 84 80 69 68 25 0 0 2 8 10 8 6 2 0 0 0 0 0 0 0 0
0 0 0 0 0 0 0 0 0 4 54 93 167 301 460 590 647 637 638 688 699 667 672 698 685 674 660 635 605 577 523 531 534 530 492 455 365 334 323 245 196 168 145 111 116 84 26 1 0 0 9 3 0 4 1 0 0 0 0 0 0 0 0
0 0 0 0 0 0 0 0 0 0 0 0 0 3 34 66 118 172 252 379 536 605 631 662 679 655 630 640 671 665 646 617 582 569 549 471 357 253 210 179 176 148 105 67 54 21 1 2 0 0 2 8 0 0 0 0 0 0 0 0 0 0 0
0 0 0 0 0 0 0 0 0 0 0 0 0 0 0 0 0 0 0 52 236 418 518 515 519 573 639 672 696 667 608 532 476 466 480 424 389 255 257 135 92 17 27 39 22 9 0 0 0 4 2 0 0 0 0 0 0 0 0 0 0 0 0
0 0 0 0 0 0 0 0 0 0 0 0 0 0 0 0 0 0 0 0 13 38 175 265 384 488 562 656 714 660 525 406 350 305 290 284 255 228 173 116 53 58 13 7 2 0 0 0 0 0 0 1 2 1 0 0 0 0 0 0 0 0 0
0 0 0 0 0 0 0 0 0 0 0 0 0 0 0 0 0 0 0 0 0 0 0 96 220 307 443 587 599 474 376 323 277 219 182 155 157 132 95 56 1 8 0 0 0 0 0 0 1 6 4 0 0 0 0 2 0 0 0 0 0 0 0
0 0 0 0 0 0 0 0 0 0 0 0 0 0 0 0 0 0 0 0 0 0 0 0 201 336 475 486 430 376 307 265 233 210 177 128 72 0 9 7 3 2 2 4 2 0 0 0 0 0 0 1 2 6 6 2 0 0 0 0 0 0 0
0 0 0 0 0 0 0 0 0 0 0 0 0 0 0 0 0 0 0 0 0 0 0 0 148 358 461 443 357 280 228 207 218 212 178 150 0 0 0 0 0 2 2 2 0 0 1 1 2 1 1 3 5 4 2 0 0 0 0 0 0 0 0
0 0 0 0 0 0 0 0 0 0 0 0 0 0 0 0 0 0 0 0 0 0 0 169 273 400 432 354 257 204 7 0 118 162 0 0 0 32 2 2 5 0 20 4 4 0 0 0 0 0 0 0 1 2 0 0 0 0 0 0 0 0 0
0 0 0 0 0 0 0 0 0 0 0 0 0 0 0 0 0 0 0 0 0 0 81 185 205 230 252 232 191 168 150 144 48 0 0 27 30 10 5 6 12 24 8 0 0 1 13 2 0 0 3 5 1 0 0 0 0 0 0 0 0 0 0
0 0 0 0 0 0 0 0 0 0 0 0 0 0 0 0 0 0 0 0 0 0 0 0 0 0 128 154 160 161 191 145 0 0 0 0 0 2 4 10 7 14 3 0 1 2 0 2 7 8 11 8 2 0 0 0 0 0 0 0 0 0 0
0 0 0 0 0 0 0 0 0 0 0 0 0 0 0 0 0 0 0 0 0 0 0 0 0 0 90 112 120 136 136 103 48 0 0 0 0 1 6 3 6 0 8 14 10 15 11 8 10 16 12 6 3 1 0 0 0 0 0 0 0 0 0
0 0 0 0 0 0 0 0 0 0 0 0 0 0 0 0 0 0 0 0 0 0 0 0 0 29 55 60 67 63 53 44 17 3 1 3 5 10 8 4 1 2 9 14 13 11 10 13 12 6 4 4 2 0 0 0 0 0 0 0 0 0 0

ECMWFFLT1_con_mucape_033.txt.gz
CAPE
0 0 0 0 0 0 0 0 0 0 0 0 0 0 0 0 0 168 417 361 148 164 214 276 344 363 460 485 560 568 636 654 595 647 754 753 660 699 661 673 455 485 502 368 368 216 0 140 72 267 224 156 316 649 487 504 591 531 883 785 565 655 434
0 0 0 0 0 0 0 0 0 0 0 0 0 0 0 0 0 0 0 0 0 0 62 77 210 285 342 357 167 73 378 532 556 550 543 564 561 611 657 619 512 525 438 226 88 276 132 52 4 0 0 2 1 4 3 0 60 346 486 589 816 909 1045
0 0 0 0 0 0 0 0 0 0 0 0 0 0 0 0 0 0 0 0 0 0 0 0 0 0 0 0 0 0 0 202 300 345 340 379 396 427 496 516 542 459 373 129 0 0 0 0 0 1 2 3 2 5 2 0 0 4 213 306 162 217 228
0 0 0 0 0 0 0 0 0 0 0 0 0 0 0 0 0 0 0 0 0 0 0 0 0 0 0 0 0 0 0 0 0 22 40 184 242 295 302 492 477 345 320 243 110 31 2 9 3 0 2 3 2 0 0 0 0 0 0 0 0 0 0
0 0 0 0 0 0 0 0 0 0 0 0 0 0 0 0 0 0 0 0 0 0 0 0 0 0 0 0 0 0 0 0 0 0 0 0 0 0 32 90 80 44 0 63 0 3 0 3 4 1 1 1 0 0 0 0 0 0 0 0 0 0 0
0 0 0 0 0 0 0 0 0 0 0 0 0 0 0 0 0 0 0 0 0 0 0 0 0 0 0 0 0 0 0 0 0 0 0 0 0 0 0 0 0 0 0 0 0 30 0 0 0 0 0 4 3 1 0 0 0 0 0 0 0 0 0
0 0 0 0 0 0 0 0 0 0 0 0 0 0 0 0 0 0 0 0 0 0 0 0 0 0 0 0 0 0 0 0 0 0 0 0 0 0 0 0 0 0 0 0 0 0 0 0 0 0 0 0 0 0 0 0 0 0 0 0 40 210 149
0 0 0 0 0 0 0 0 0 0 0 0 0 0 0 0 0 0 0 0 0 0 0 0 0 0 0 0 0 0 0 0 0 0 0 0 0 0 0 0 0 0 0 0 0 0 0 0 0 0 0 0 0 0 0 0 0 0 0 0 3 122 218
0 0 0 0 0 0 0 0 0 0 0 0 0 0 0 0 0 0 0 0 0 0 0 0 0 0 0 0 0 0 0 0 0 0 0 0 0 0 0 0 0 0 0 0 0 0 0 0 0 0 0 0 0 0 0 0 0 0 0 0 0 0 66
0 0 0 0 0 0 0 0 0 0 0 0 0 0 0 0 0 0 0 0 0 0 0 0 0 0 0 0 0 0 0 0 0 0 0 0 0 0 0 0 0 0 0 0 0 0 0 0 0 0 0 0 0 0 0 0 0 0 0 0 0 0 0
0 0 0 0 0 0 0 0 0 0 0 0 0 0 0 0 0 0 0 0 0 0 0 0 0 0 0 0 0 0 0 0 0 0 0 0 0 0 0 0 0 0 0 0 0 0 0 0 0 0 0 0 0 0 0 0 0 0 0 0 0 0 0
0 0 0 0 0 0 0 0 0 0 0 0 0 0 0 0 0 0 0 0 0 0 0 0 0 0 0 0 0 0 0 0 0 0 0 0 0 0 0 0 0 0 0 0 0 0 0 0 0 0 0 0 0 0 0 0 0 0 0 0 0 0 0
0 0 0 0 0 0 0 0 0 0 0 0 0 0 0 0 0 0 0 0 0 0 0 0 0 0 0 0 0 0 0 0 0 0 0 0 0 0 0 0 0 0 0 0 0 0 0 0 0 0 0 0 0 0 0 0 0 0 0 0 0 0 0
0 0 0 0 0 0 0 0 0 0 0 0 0 0 0 0 0 0 0 0 0 0 0 0 0 0 0 0 0 0 0 0 0 0 0 0 0 0 0 0 0 0 0 0 0 0 0 0 0 0 0 0 0 0 0 0 0 0 0 0 0 0 0
0 0 0 0 0 0 0 0 0 0 0 0 0 0 0 0 0 0 0 0 0 0 0 0 0 0 0 0 0 0 0 0 0 0 0 0 0 0 0 0 0 0 0 0 0 0 0 0 0 0 0 0 0 0 0 0 0 0 0 0 0 0 0
19 0 0 0 3 1 0 0 0 0 0 0 0 0 0 0 0 0 4 0 0 0 0 0 0 0 0 0 0 0 0 0 0 0 0 0 0 0 0 0 0 0 0 0 0 0 0 0 0 0 0 0 0 0 0 0 0 0 0 0 0 0 0
101 11 0 0 0 0 0 0 0 0 0 0 0 0 0 0 0 0 0 0 0 0 0 0 0 0 0 0 0 0 0 0 0 0 0 0 0 0 0 0 0 0 0 0 0 0 0 0 0 0 0 0 0 0 0 0 0 0 0 0 0 0 0
106 50 1 8 0 0 0 1 0 0 0 0 0 0 1 2 0 0 0 0 2 0 0 0 0 0 0 0 2 1 0 0 0 0 0 0 0 0 0 0 0 0 0 0 0 0 0 0 0 0 0 0 0 0 0 0 0 0 0 0 0 0 0
74 64 51 36 10 23 11 0 0 49 13 2 15 4 0 2 1 10 0 0 0 1 0 0 0 0 0 0 3 12 10 3 0 0 0 0 0 0 0 0 0 6 1 0 0 0 0 0 0 0 0 0 0 0 0 0 0 0 0 0 0 0 0
188 75 28 18 7 15 6 43 34 92 323 188 0 15 0 0 0 11 35 4 0 60 0 0 0 124 0 0 0 1 6 12 22 164 9 0 0 0 0 0 0 0 30 40 37 37 28 6 0 0 0 0 0 0 0 0 0 0 0 0 0 0 0
206 248 0 0 5 18 24 18 53 348 417 411 401 253 0 0 0 0 0 7 23 162 312 332 315 319 312 303 285 271 270 254 92 272 256 232 208 170 137 117 114 67 16 5 16 23 31 13 2 0 0 0 0 0 0 0 0 0 0 0 0 0 0
283 318 228 248 8 192 363 155 155 0 328 378 83 7 82 37 6 0 63 201 419 384 465 437 371 292 255 271 275 298 337 350 318 310 282 217 175 204 205 196 184 180 138 78 33 13 14 14 12 8 8 4 0 0 0 0 2 2 1 0 0 0 0
312 313 265 292 320 78 4 66 361 175 0 13 201 202 0 15 32 20 162 209 383 504 478 459 430 393 357 275 289 294 265 274 253 109 194 254 199 207 196 227 260 273 195 149 81 34 6 6 13 14 13 3 0 0 0 0 0 0 0 0 0 0 0
544 536 480 434 327 85 231 504 432 288 194 194 8 3 56 44 5 5 172 490 563 614 618 615 642 634 608 579 534 504 479 459 432 399 371 332 316 325 328 287 279 286 282 232 148 74 23 10 11 9 9 11 0 0 0 0 0 0 0 0 0 0 0
751 839 712 520 462 568 599 568 570 536 517 510 523 567 600 635 671 686 628 643 651 692 703 681 648 654 641 629 590 535 524 524 519 481 431 395 374 366 368 370 337 305 291 280 227 121 45 22 17 7 18 16 9 1 0 0 0 0 0 0 0 0 0
298 420 133 0 0 0 202 398 474 428 405 246 164 184 134 257 216 188 199 233 306 362 433 486 503 521 543 546 527 508 522 556 563 558 537 533 520 502 471 420 364 326 287 255 190 130 92 52 8 8 23 2 2 0 0 0 0 0 0 0 0 0 0
0 0 0 0 0 0 0 0 0 0 0 0 0 0 0 0 0 0 0 0 0 21 131 186 289 373 418 446 482 497 527 567 594 564 537 525 512 536 555 539 476 383 300 228 177 129 89 63 6 21 25 4 3 0 0 0 0 0 0 0 0 0 0
0 0 0 0 0 0 0 0 0 0 0 0 0 0 0 0 0 0 0 0 0 0 0 0 83 169 273 364 419 510 587 614 603 573 530 486 443 431 458 451 398 315 234 182 137 81 77 42 16 36 8 14 0 0 0 0 0 0 0 0 0 0 0
0 0 0 0 0 0 0 0 0 0 0 0 0 0 0 0 0 0 0 0 0 0 0 0 0 0 104 221 355 486 592 622 584 512 445 373 311 282 308 314 289 237 180 136 80 28 15 20 24 12 15 10 3 0 0 0 0 0 0 0 0 0 0
0 0 0 0 0 0 0 0 0 0 0 0 0 0 0 0 0 0 0 0 0 0 0 0 0 0 0 143 298 461 532 523 427 282 208 171 152 150 170 194 215 190 134 75 24 5 2 6 9 8 10 7 2 0 0 0 0 0 0 0 0 0 0
0 0 0 0 0 0 0 0 0 0 0 0 0 0 0 0 0 0 0 0 0 0 0 0 0 0 0 134 278 411 439 345 235 144 20 18 19 18 19 20 21 112 72 20 26 4 19 0 4 2 2 1 2 0 0 0 0 0 0 0 0 0 0
0 0 0 0 0 0 0 0 0 0 0 0 0 0 0 0 0 0 0 0 0 0 0 0 0 0 0 165 283 364 359 264 155 26 0 0 0 0 0 0 0 0 0 35 6 2 1 3 2 5 6 2 0 0 0 0 0 0 0 0 0 0 0
0 0 0 0 0 0 0 0 0 0 0 0 0 0 0 0 0 0 0 0 0 0 0 0 0 0 156 257 308 294 218 138 0 0 0 0 0 0 0 1 14 48 56 34 21 12 8 9 11 2 1 0 0 0 0 0 0 0 0 0 0 0 0
0 0 0 0 0 0 0 0 0 0 0 0 0 0 0 0 0 0 0 0 0 0 0 0 0 0 105 166 176 173 149 56 0 0 0 0 0 0 2 2 8 7 15 14 12 10 11 8 7 10 0 0 0 0 0 0 0 0 0 0 0 0 0
1 2 1 0 0 0 0 0 0 0 0 0 0 0 0 0 0 0 0 0 0 0 0 0 0 0 0 0 120 132 115 48 0 44 0 0 0 0 0 0 2 6 10 11 14 11 9 12 11 2 3 8 10 5 4 4 3 2 0 0 0 0 0
8 2 2 1 1 0 0 0 0 0 0 0 0 0 0 0 0 0 0 0 0 0 0 0 0 0 0 0 0 0 43 0 0 38 15 3 2 0 0 0 0 1 1 4 0 2 12 13 10 4 1 2 4 6 7 7 2 0 0 0 0 0 0
0 0 0 0 1 1 1 0 0 0 0 0 0 0 0 0 0 0 0 0 0 0 0 0 0 0 0 0 0 0 79 63 46 36 19 15 5 2 0 2 0 1 4 5 2 2 1 1 2 5 1 0 4 1 0 0 0 0 0 0 0 0 0

ECMWFFLT1_con_mucape_036.txt.gz
CAPE
0 0 0 0 0 0 0 0 0 0 0 0 0 0 0 147 351 591 516 382 318 258 255 262 360 413 456 498 589 524 542 522 579 578 597 566 578 524 623 656 519 430 496 469 315 324 64 305 68 27 0 132 0 0 0 0 163 453 551 590 632 588 654
0 0 0 0 0 0 0 0 0 0 0 0 0 0 0 17 272 334 223 173 175 156 190 187 249 313 264 128 143 345 460 482 366 39 492 576 615 595 586 443 528 437 439 338 324 102 42 50 0 112 0 0 0 0 0 0 0 0 133 255 302 318 358
0 0 0 0 0 0 0 0 0 0 0 0 0 0 0 146 219 0 0 0 0 0 0 0 0 0 0 0 0 0 0 0 0 0 315 369 454 469 450 318 478 432 394 0 115 37 4 0 6 0 0 1 0 0 0 0 0 0 0 0 61 95 173
0 0 0 0 0 0 0 0 0 0 0 0 0 0 0 0 0 0 0 0 0 0 0 0 0 0 0 0 0 0 0 0 0 2 103 157 225 270 430 470 347 137 51 266 0 0 0 0 0 0 0 0 0 1 0 0 0 0 0 0 0 0 24
0 0 0 0 0 0 0 0 0 0 0 0 0 0 0 0 0 0 0 0 0 0 0 0 0 0 0 0 0 0 0 0 0 0 0 0 0 49 260 221 21 0 0 0 0 0 0 0 0 0 0 0 0 0 0 0 0 0 0 0 0 0 0
0 0 0 0 0 0 0 0 0 0 0 0 0 0 0 0 0 0 0 0 0 0 0 0 0 0 0 0 0 0 0 0 0 0 0 0 0 0 0 0 0 0 0 0 0 0 0 0 0 0 0 0 0 0 0 0 0 0 0 0 0 0 0
0 0 0 0 0 0 0 0 0 0 0 0 0 0 0 0 0 0 0 0 0 0 0 0 0 0 0 0 0 0 0 0 0 0 0 0 0 0 0 0 0 0 0 0 0 0 0 0 0 0 0 0 0 0 0 0 0 0 0 0 0 13 12
0 0 0 0 0 0 0 0 0 0 0 0 0 0 0 0 0 0 0 0 0 0 0 0 0 0 0 0 0 0 0 0 0 0 0 0 0 0 0 0 0 0 0 0 0 0 0 0 0 0 0 0 0 0 0 0 0 0 0 0 0 60 56
0 0 0 0 0 0 0 0 0 0 0 0 0 0 0 0 0 0 0 0 0 0 0 0 0 0 0 0 0 0 0 0 0 0 0 0 0 0 0 0 0 0 0 0 0 0 0 0 0 0 0 0 0 0 0 0 0 0 0 0 0 0 0
0 0 0 0 0 0 0 0 0 0 0 0 0 0 0 0 0 0 0 0 0 0 0 0 0 0 0 0 0 0 0 0 0 0 0 0 0 0 0 0 0 0 0 0 0 0 0 0 0 0 0 0 0 0 0 0 0 0 0 0 0 0 0
0 0 0 0 0 0 0 0 0 0 0 0 0 0 0 0 0 0 0 0 0 0 0 0 0 0 0 0 0 0 0 0 0 0 0 0 0 0 0 0 0 0 0 0 0 0 0 0 0 0 0 0 0 0 0 0 0 0 0 0 0 0 0
0 0 0 0 0 0 0 0 0 0 0 0 0 0 0 0 0 0 0 0 0 0 0 0 0 0 0 0 0 0 0 0 0 0 0 0 0 0 0 0 0 0 0 0 0 0 0 0 0 0 0 0 0 0 0 0 0 0 0 0 0 0 0
35 5 0 0 0 0 0 0 0 0 0 0 0 0 0 0 0 0 0 0 0 0 0 0 0 0 0 0 0 0 0 0 0 0 0 0 0 0 0 0 0 0 0 0 0 0 0 0 0 0 0 0 0 0 0 0 0 0 0 0 0 0 0
27 34 2 0 0 0 0 0 0 0 0 0 0 0 0 0 0 0 0 0 0 0 0 0 0 0 0 0 0 0 0 0 0 0 0 0 0 0 0 0 0 0 0 0 0 0 0 0 0 0 0 0 0 0 0 0 0 0 0 0 0 0 0
58 73 12 0 0 0 0 0 0 0 0 0 0 0 0 0 0 0 0 0 0 0 0 0 0 0 0 0 0 0 0 0 0 0 0 0 0 0 0 0 0 0 0 0 0 0 0 0 0 0 0 0 0 0 0 0 0 0 0 0 0 0 0
65 40 5 0 0 0 0 0 0 0 0 0 0 0 0 0 0 0 0 0 0 0 0 0 0 0 0 0 0 0 0 0 0 0 0 0 0 0 0 0 0 0 0 0 0 0 0 0 0 0 0 0 0 0 0 0 0 0 0 0 0 0 0
166 21 0 0 0 0 0 0 0 0 0 0 0 0 0 0 0 0 0 0 0 0 0 0 0 0 1 4 2 0 0 0 0 0 0 0 0 0 0 0 0 0 0 0 0 0 0 0 0 0 0 0 0 0 0 0 0 0 0 0 0 0 0
235 0 0 0 0 0 0 0 0 0 0 0 0 0 186 84 0 0 0 0 0 0 0 0 0 0 0 0 1 2 1 0 0 0 0 0 0 0 0 0 0 0 0 0 0 0 0 0 0 0 0 0 0 0 0 0 0 0 0 0 0 0 0
292 56 64 0 0 1 0 0 0 0 0 0 227 0 0 0 0 0 0 0 0 0 128 52 0 0 0 0 2 0 2 2 0 0 0 0 0 0 0 0 0 0 0 0 0 0 0 0 0 0 0 0 0 0 0 0 0 0 0 0 0 0 0
392 83 54 54 37 24 0 0 0 0 0 2 8 4 0 0 0 0 8 18 55 1 3 0 1 1 0 4 21 17 31 186 118 101 86 10 0 0 40 0 0 0 14 6 0 0 0 0 0 2 0 0 0 0 0 0 0 0 0 0 0 0 0
492 342 187 162 80 50 16 0 5 0 0 0 0 0 0 0 0 0 62 3 5 11 6 0 0 0 0 0 52 106 216 156 240 39 126 163 169 161 164 131 0 0 0 0 0 0 0 0 2 9 11 8 5 1 0 0 0 0 0 0 0 0 0
437 292 90 156 148 63 13 118 0 258 127 0 29 160 220 0 0 0 0 0 0 11 17 0 0 0 250 271 276 200 29 0 0 0 232 251 222 31 182 134 4 66 85 0 0 0 0 4 6 12 16 14 14 3 1 0 0 0 0 0 0 0 0
476 352 292 320 191 250 218 118 315 319 151 262 182 0 0 1 1 9 2 0 0 11 17 5 44 179 322 270 200 206 226 260 122 108 250 231 212 143 0 0 0 0 0 40 106 73 26 11 8 2 21 14 8 5 6 6 5 2 0 0 0 0 0
515 344 352 385 398 385 325 329 335 333 340 185 0 1 3 20 3 0 0 2 1 0 1 213 262 282 300 367 422 454 484 504 459 419 380 352 323 298 269 225 191 172 182 172 187 147 86 68 50 24 20 19 18 12 6 3 5 6 0 0 0 0 0
364 302 318 376 383 368 390 372 364 137 289 312 175 138 0 1 5 1 22 127 121 196 448 544 580 534 517 530 516 523 524 488 447 458 445 427 368 346 293 278 263 258 251 244 187 84 132 71 70 65 40 28 23 25 24 2 2 2 1 2 0 0 0
644 701 688 628 564 440 485 378 337 428 404 459 445 388 341 320 259 258 267 242 214 224 239 255 248 276 340 381 424 451 429 402 411 442 471 464 435 438 464 430 408 386 357 345 280 219 119 66 59 61 44 41 34 27 21 6 15 4 4 4 2 0 0
535 762 776 655 529 462 491 544 548 557 480 214 106 77 56 0 0 0 0 0 0 0 0 0 0 0 0 77 225 291 366 418 438 477 474 456 426 412 405 394 415 450 440 396 357 244 206 144 86 51 45 30 32 31 23 17 8 5 6 3 1 0 0
0 0 0 0 146 264 359 396 345 154 0 0 0 0 0 0 0 0 0 0 0 0 0 0 0 0 0 0 22 180 276 389 507 560 552 511 467 423 378 335 324 351 404 448 416 315 220 131 69 38 31 35 23 24 19 8 12 14 5 1 0 0 0
0 0 0 0 0 0 33 0 0 0 0 0 0 0 0 0 0 0 0 0 0 0 0 0 0 0 0 0 0 130 252 382 520 589 573 520 439 364 272 204 177 203 285 321 287 207 128 70 26 10 1 4 3 2 14 7 16 12 9 1 0 0 0
0 0 0 0 0 0 0 0 0 0 0 0 0 0 0 0 0 0 0 0 0 0 0 0 0 0 0 0 0 103 247 392 495 522 479 309 159 95 49 0 65 122 176 227 204 117 9 20 0 0 5 5 12 11 16 15 7 2 1 0 0 0 0
0 0 0 0 0 0 0 0 0 0 0 0 0 0 0 0 0 0 0 0 0 0 0 0 0 0 0 0 0 151 272 354 408 354 224 104 0 0 0 0 0 12 96 138 134 14 18 1 2 8 13 13 5 10 8 6 3 0 0 0 0 0 0
0 0 0 0 0 0 0 0 0 0 0 0 0 0 0 0 0 0 0 0 0 0 0 0 0 0 0 98 159 223 270 307 294 210 49 0 0 0 0 0 0 0 0 0 0 26 5 5 10 14 13 7 9 13 5 1 1 0 0 0 0 0 0
0 0 0 0 0 0 0 0 0 0 0 0 0 0 0 0 0 0 0 0 0 0 0 0 0 0 0 5 152 188 204 163 40 0 0 0 0 0 0 0 0 0 0 0 0 0 0 5 8 8 16 21 18 6 2 0 0 5 2 0 0 0 0
0 0 0 0 0 0 0 0 0 0 0 0 0 0 0 0 0 0 0 0 0 0 0 0 0 0 0 0 0 0 0 0 0 0 0 0 0 0 0 0 0 0 0 1 3 6 7 9 10 4 1 1 1 0 4 7 6 5 3 2 0 0 0
2 5 7 6 0 0 0 0 0 0 0 0 0 0 0 0 0 0 0 0 0 0 0 0 0 0 0 0 0 0 0 0 0 0 0 0 0 0 0 0 0 0 0 0 4 6 7 10 2 3 2 2 3 8 6 3 2 1 0 0 0 0 0
7 6 5 2 0 0 0 0 0 1 3 1 3 8 6 0 0 0 0 0 0 0 0 0 0 0 0 0 0 0 0 0 0 0 0 0 1 3 2 1 0 0 0 0 0 0 0 0 0 1 2 4 3 1 1 0 0 0 0 0 0 0 0
12 10 13 8 3 0 1 1 1 5 10 12 9 12 5 1 0 0 0 0 0 0 0 0 0 0 0 0 0 0 0 0 0 0 0 0 0 2 2 3 4 0 0 0 0 0 0 0 0 0 0 0 0 0 0 0 0 0 0 0 0 0 0